Volver al catálogo

STARLINK-32643

ActivoComunicacionesVLEO
NORAD 62233·PAYLOAD·🇺🇸 United States

Lanzado Dec 5, 2024 desde Vandenberg Space Force Base

Loading…

Próximos Pases (próximas 24 horas)

TLE

ActualizadoSource: CelesTrak SupGP

Época: Sep 14, 2026, 20:44 UTC

1 62233C 24231R   26257.86437500  .00040292  00000+0  12961-2 0  2577
2 62233  53.1596  46.6487 0001298  82.5597 256.3054 15.31671810    17

Sigue STARLINK-32643 en tiempo real con AllMySat

Download on the App Store